#timestamp,LO_Frequency,Hit,StdDev 
1503392415.1,286047002.0,N,1.6
1503392435.9,286047002.8,N,1.7
1503392455.7,286046999.7,N,1.7
1503392475.5,286046999.9,N,1.7
1503392495.4,286047000.1,N,1.6
1503392515.2,286047002.2,N,1.7
1503392535.1,286047002.4,N,1.7
1503392536.0,286047002.4,N,1.8
1503392555.8,286047002.2,N,1.7
1503392575.6,286047001.3,N,1.7
1503392595.5,286047001.4,N,1.5
1503392615.3,286047003.9,N,1.5
1503392635.1,286047004.4,N,1.5
1503392655.9,286047003.4,N,1.6
1503392675.7,286047003.2,N,1.6
1503392695.6,286047002.9,N,1.6
1503392715.4,286047005.7,Y,0.0
1503392735.3,286047004.0,P,1.4
1503392755.1,286047004.0,N,1.3
1503392756.0,286047004.0,N,1.2
1503392775.8,286047003.8,Y,0.0
1503392795.7,286047000.6,P,1.3
1503392815.5,286047001.0,N,1.2
1503392835.3,286047000.9,N,1.1
1503392855.2,286047000.8,N,1.0
1503392875.0,286047001.1,N,0.9
1503392875.9,286047001.1,N,0.8
1503392895.8,286047001.1,N,0.8
1503392915.6,286047001.1,N,0.8
1503392935.4,286046999.9,N,0.8
1503392955.3,286047000.6,N,0.8
1503392975.1,286047000.1,N,0.8
1503392995.9,286047000.9,N,0.8
1503393015.7,286047000.3,N,0.8
1503393035.5,286047000.5,N,0.7
1503393055.4,286047000.4,N,0.7
1503393075.2,286047002.3,Y,0.0
1503393095.0,286047000.2,P,0.3
1503393096.0,286047000.2,N,0.3
1503393115.8,286047002.8,P,1.1
1503393135.6,286047000.2,N,1.0
1503393155.5,286047000.0,N,1.0
1503393175.3,286047000.0,N,0.9
1503393195.1,286047000.4,N,0.9
1503393215.9,286047000.2,N,0.8
1503393235.7,286047000.9,N,0.8
1503393255.6,286047000.5,N,0.8
1503393275.4,286046998.1,N,1.0
1503393295.2,286047000.6,N,1.0
1503393315.1,286047000.0,N,0.9
1503393316.0,286047000.0,N,0.9
1503393335.8,286047000.0,N,0.9
1503393355.7,286047002.8,Y,0.0
1503393375.5,286047000.2,P,0.1
1503393395.3,286047001.1,P,0.4
1503393415.2,286046999.9,N,0.4
1503393435.0,286047000.5,N,0.4
1503393435.9,286047000.5,N,0.4
1503393455.7,286047002.3,Y,0.0
1503393475.6,286047000.4,P,0.0
1503393495.4,286046999.9,P,0.2
1503393515.3,286046999.7,N,0.3
1503393535.1,286046999.7,N,0.3
1503393555.8,286046999.9,N,0.3
1503393575.7,286047000.0,N,0.3
1503393595.5,286047000.1,N,0.3
1503393615.4,286047000.3,N,0.3
1503393635.2,286046999.8,N,0.3
1503393655.0,286046999.8,N,0.3
1503393655.9,286046999.8,N,0.3
1503393675.8,286047001.8,Y,0.0
1503393695.6,286047002.5,P,1.3
1503393715.5,286047002.1,N,1.1
1503393735.3,286047002.1,N,1.0
1503393755.1,286047002.0,N,0.9
1503393775.9,286047002.3,N,0.8
1503393795.7,286047002.2,N,0.8
1503393815.5,286046999.7,N,1.0
1503393835.4,286047000.2,N,1.1
1503393855.2,286047002.5,N,1.1
1503393875.1,286047002.0,N,1.0
1503393876.0,286047002.0,N,1.0
1503393895.8,286046999.8,N,1.1
1503393915.6,286047002.4,N,1.1
1503393935.5,286047002.3,N,1.0
1503393955.3,286047002.7,N,1.0
1503393975.2,286047000.1,N,1.1
1503393995.9,286047001.6,N,1.0
1503394015.7,286047002.0,N,1.0
1503394035.6,286047004.4,Y,0.0
1503394055.4,286047002.5,P,0.4
1503394075.3,286047002.5,P,0.4
1503394095.1,286047000.1,N,1.0
1503394096.0,286047000.1,N,1.1
1503394145.9,286047000.4,E,nan
1503394155.8,286047000.0,N,0.0
1503394175.6,286047000.8,P,0.4
1503394195.5,286047001.2,N,0.5
1503394215.3,286047000.5,N,0.4
1503394235.1,286046999.8,N,0.5
1503394255.9,286047002.7,Y,0.0
1503394275.7,286047002.8,P,1.2
1503394295.6,286047000.2,N,1.2
1503394315.4,286047000.4,N,1.1
1503394335.2,286047000.0,N,1.0
1503394355.1,286047000.2,N,1.0
1503394356.0,286047000.2,N,0.9
1503394375.8,286047002.4,N,1.0
1503394395.6,286047002.3,N,1.1
1503394415.5,286047002.7,N,1.1
1503394435.3,286046999.7,N,1.2
1503394455.2,286046999.9,N,1.2
1503394475.0,286047000.0,N,1.1
1503394475.9,286047000.0,N,1.1
1503394495.7,286047002.6,N,1.2
1503394515.6,286047002.2,N,1.2
1503394535.4,286046999.8,N,1.2
1503394555.3,286047000.3,N,1.2
1503394575.1,286047000.3,N,1.1
1503394595.8,286047000.0,N,1.1
1503394615.7,286046999.7,N,1.1
1503394635.5,286047000.2,N,1.1
1503394655.4,286042108.4,Y,0.0
1503394675.2,286046998.2,P,1.3
1503394695.0,286046998.8,N,1.1
1503394695.9,286046998.8,N,1.0
1503394715.8,286046998.7,N,0.9
1503394735.6,286046998.7,N,0.8
1503394755.5,286046998.2,N,0.8
1503394775.3,286047002.7,Y,0.0
1503394795.1,286047001.5,P,1.3
1503394815.9,286047001.7,N,1.3
1503394835.7,286047002.1,N,1.3
1503394855.6,286047002.2,N,1.2
1503394875.4,286047002.6,N,1.2
1503394895.2,286047002.5,N,1.2
1503394915.1,286046999.9,N,1.2
1503394916.0,286046999.9,N,1.3
1503394935.8,286047000.3,N,1.2
1503394955.7,286047000.6,N,1.2
1503394975.5,286047000.3,N,1.2
1503394995.3,286047000.8,N,1.1
1503395015.2,286047000.9,N,1.1
1503395035.0,286047000.8,N,1.0
1503395035.9,286047000.8,N,1.0
1503395055.7,286047001.2,N,1.0
1503395075.6,286047000.4,N,1.0
1503395095.4,286046999.8,N,1.0
1503395115.3,286047001.6,N,1.0
1503395135.1,286047001.5,N,0.9
1503395136.0,286047001.5,N,0.9
1503395155.8,286047002.6,N,1.0
1503395175.7,286047002.2,N,1.0
1503395195.5,286047002.2,N,1.0
1503395215.4,286047002.5,N,1.0
1503395235.2,286047002.3,N,1.0
1503395255.0,286047002.7,N,1.0
1503395255.9,286047002.7,N,1.0
1503395275.8,286047000.2,N,1.0
1503395295.6,286047000.0,N,1.0
1503395315.5,286046998.5,N,1.1
1503395335.3,286047001.2,N,1.1
1503395355.1,286047001.2,N,1.1
1503395375.9,286046999.9,N,1.1
1503395395.7,286047001.0,N,1.0
1503395415.6,286046998.5,N,1.1
1503395435.4,286046998.6,N,1.2
1503395455.2,286047000.8,N,1.2
1503395475.1,286046998.5,N,1.2
1503395476.0,286046998.5,N,1.3
1503395495.8,286046999.8,N,1.3
1503395515.6,286047000.1,N,1.3
1503395535.5,286047000.8,N,1.3
1503395555.3,286046999.0,N,1.4
1503395575.2,286046999.4,N,1.4
1503395595.9,286046999.4,N,1.4
1503395615.7,286046996.5,N,1.6
1503395635.6,286046997.2,N,1.7
1503395655.4,286046996.7,N,1.8
1503395675.3,286046995.3,N,2.0
1503395695.1,286046995.1,N,2.1
1503395715.8,286046995.7,N,2.2
1503395735.7,286046993.7,N,2.4
1503395755.5,286046995.9,N,2.4
1503395775.4,286046996.3,N,2.3
1503395795.2,286046993.8,N,2.4
1503395815.0,286046993.8,N,2.4
1503395815.9,286046993.8,N,2.4
1503395835.8,286046996.2,N,2.4
1503395855.6,286046995.0,N,2.4
1503395875.5,286046995.0,N,2.5
1503395895.3,286046996.1,N,2.4
1503395915.1,286046995.6,N,2.3
1503395935.9,286046997.9,N,2.2
1503395955.7,286046994.9,N,2.2
1503395975.5,286046995.8,N,2.1
1503395995.4,286046994.9,N,2.1
